VE3ZEB-1 Weather Reports


Display with metric or nautical units.
time (UTC)temp
F
wind
direction
speed
MPH
gust
MPH
rain 1hr
in
rain 24hr
in
rain mn
in
humidity
%
barometer
mb
20260502205020 52 338 4.0 9.0 0.00 0.00 0.00 36 679.5
20260502204020 52 335 5.0 9.0 0.00 0.00 0.00 38 679.5
20260502203020 52 323 5.0 8.0 0.00 0.00 0.00 38 679.5
20260502202101 51 336 4.0 7.0 0.00 0.00 0.00 39 679.5
20260502201021 51 314 4.0 10.0 0.00 0.00 0.00 39 679.5
20260502200021 51 356 4.0 8.0 0.00 0.00 0.00 37 679.5
20260502195021 51 339 3.0 5.0 0.00 0.00 0.00 39 679.5
20260502194021 51 327 5.0 10.0 0.00 0.00 0.00 39 679.5
20260502193021 51 335 4.0 7.0 0.00 0.00 0.00 41 679.5
20260502192022 51 334 5.0 8.0 0.00 0.00 0.00 41 679.5
20260502191021 51 315 4.0 9.0 0.00 0.00 0.00 42 679.5
20260502185022 52 324 5.0 8.0 0.00 0.00 0.00 43 679.5
20260502184043 52 330 4.0 7.0 0.00 0.00 0.00 43 679.5
20260502183022 52 328 3.0 10.0 0.00 0.00 0.00 43 679.5
20260502182022 52 328 3.0 7.0 0.00 0.00 0.00 45 679.5
20260502181043 52 329 4.0 8.0 0.00 0.00 0.00 43 679.5
20260502164024 51 329 4.0 7.0 0.00 0.00 0.00 44 679.5
20260502163024 51 332 3.0 6.0 0.00 0.00 0.00 47 679.5
20260502162024 51 319 3.0 6.0 0.00 0.00 0.00 47 679.5
20260502161024 51 346 2.0 4.0 0.00 0.00 0.00 44 679.5
20260502152024 53 0 4.0 7.0 0.00 0.00 0.00 43 679.5
20260502151025 53 328 5.0 9.0 0.00 0.00 0.00 48 679.5
20260502123027 41 9 3.0 6.0 0.00 0.00 0.00 67 679.2
20260502122027 41 320 4.0 9.0 0.00 0.00 0.00 68 679.2
20260502121027 40 332 2.0 6.0 0.00 0.00 0.00 71 679.2
20260502115028 37 326 3.0 6.0 0.00 0.00 0.00 75 679.2
20260502114028 36 314 2.0 4.0 0.00 0.00 0.00 75 679.2
20260502113028 35 327 2.0 4.0 0.00 0.00 0.00 75 679.1
20260502112048 35 319 2.0 4.0 0.00 0.00 0.00 75 679.1
20260502111028 34 318 3.0 4.0 0.00 0.00 0.00 75 679.1
20260502110128 34 315 2.0 3.0 0.00 0.00 0.00 75 679.1
20260502105048 34 320 2.0 3.0 0.00 0.00 0.00 75 679.1
20260502104028 34 312 2.0 3.0 0.00 0.00 0.00 75 679.1
20260502103028 34 306 1.0 3.0 0.00 0.00 0.00 75 679.1
20260502102029 34 302 1.0 2.0 0.00 0.00 0.00 75 679.1
20260502101029 34 311 1.0 3.0 0.00 0.00 0.00 75 679.1
20260502091029 35 288 1.0 2.0 0.00 0.00 0.00 75 679.1
20260502071017 36 297 1.0 3.0 0.00 0.00 0.00 74 679.2
20260502070016 36 311 1.0 3.0 0.00 0.00 0.00 74 679.2
20260502065016 36 301 2.0 3.0 0.00 0.00 0.00 74 679.2
20260502064032 36 314 1.0 3.0 0.00 0.00 0.00 75 679.2
20260502063032 36 303 1.0 2.0 0.00 0.00 0.00 75 679.2
20260502062052 36 303 1.0 2.0 0.00 0.00 0.00 75 679.2
20260502061032 36 323 3.0 6.0 0.00 0.00 0.00 75 679.2
20260502060032 36 327 2.0 6.0 0.00 0.00 0.00 75 679.2
20260502055032 36 299 1.0 2.0 0.00 0.00 0.00 74 679.2
20260502054052 36 296 1.0 2.0 0.00 0.00 0.00 73 679.2
20260502053032 36 317 2.0 5.0 0.00 0.00 0.00 74 679.2
20260502052018 36 321 2.0 3.0 0.00 0.00 0.00 73 679.2
20260502051017 36 307 2.0 3.0 0.00 0.00 0.00 72 679.2
20260502050018 36 315 3.0 5.0 0.00 0.00 0.00 71 679.2
20260502045018 36 316 2.0 3.0 0.00 0.00 0.00 70 679.2
20260502044018 36 316 3.0 5.0 0.00 0.00 0.00 70 679.2
20260502043018 35 323 2.0 5.0 0.00 0.00 0.00 69 679.2
20260502042018 35 322 2.0 3.0 0.00 0.00 0.00 68 679.2
20260502041039 35 323 2.0 4.0 0.00 0.00 0.00 67 679.2
20260502040018 35 320 2.0 3.0 0.00 0.00 0.00 66 679.2
20260502035019 35 277 2.0 2.0 0.00 0.00 0.00 65 679.2
20260502034039 35 312 2.0 4.0 0.00 0.00 0.00 65 679.2
20260502033019 35 323 1.0 3.0 0.00 0.00 0.00 64 679.2
20260502032019 35 315 3.0 4.0 0.00 0.00 0.00 63 679.2
20260502031019 36 320 3.0 5.0 0.00 0.00 0.00 63 679.2
20260502030019 36 317 3.0 6.0 0.00 0.00 0.00 62 679.2
20260502025020 36 315 3.0 5.0 0.00 0.00 0.00 62 679.2
20260502024019 36 315 2.0 4.0 0.00 0.00 0.00 60 679.2
20260502023020 36 311 2.0 3.0 0.00 0.00 0.00 59 679.2
20260502022040 36 314 2.0 3.0 0.00 0.00 0.00 58 679.2
20260502021020 37 315 2.0 4.0 0.00 0.00 0.00 58 679.2
20260502020020 37 317 2.0 4.0 0.00 0.00 0.00 57 679.2
20260502015020 37 324 2.0 5.0 0.00 0.00 0.00 56 679.2
20260502014020 38 327 2.0 5.0 0.00 0.00 0.00 55 679.2
20260502013021 38 321 1.0 3.0 0.00 0.00 0.00 54 679.2
20260502012021 38 355 2.0 4.0 0.00 0.00 0.00 53 679.2
20260502011021 39 334 2.0 4.0 0.00 0.00 0.00 52 679.3
20260502010021 39 357 2.0 4.0 0.00 0.00 0.00 52 679.3
20260502005021 40 345 2.0 4.0 0.00 0.00 0.00 51 679.3
20260502004021 40 353 3.0 7.0 0.00 0.00 0.00 51 679.3
20260502003021 41 351 3.0 5.0 0.00 0.00 0.00 48 679.3
20260502002022 42 356 3.0 6.0 0.00 0.00 0.00 47 679.3
20260502001021 42 349 3.0 5.0 0.00 0.00 0.00 45 679.3
20260502000022 43 360 3.0 6.0 0.00 0.00 0.00 47 679.4
20260501235022 43 346 2.0 3.0 0.00 0.00 0.00 47 679.4
20260501234022 44 8 3.0 8.0 0.00 0.00 0.00 44 679.4
20260501233022 44 5 4.0 9.0 0.00 0.00 0.00 46 679.4
20260501232043 45 10 4.0 9.0 0.00 0.00 0.00 47 679.4
20260501231022 46 344 3.0 7.0 0.00 0.00 0.00 47 679.4
20260501230023 47 356 3.0 6.0 0.00 0.00 0.00 47 679.4
20260501225023 47 357 3.0 6.0 0.00 0.00 0.00 45 679.5
20260501224043 48 353 3.0 6.0 0.00 0.00 0.00 44 679.5
20260501223023 49 330 4.0 7.0 0.00 0.00 0.00 44 679.5
20260501222023 49 4 4.0 7.0 0.00 0.00 0.00 44 679.5
20260501221024 50 334 4.0 6.0 0.00 0.00 0.00 43 679.5
20260501220043 51 333 5.0 13.0 0.00 0.00 0.00 44 679.5
20260501215017 51 7 4.0 8.0 0.00 0.00 0.00 43 679.5
20260501214017 51 0 4.0 7.0 0.00 0.00 0.00 42 679.5
20260501213017 51 354 5.0 9.0 0.00 0.00 0.00 44 679.5
20260501212018 51 9 5.0 9.0 0.00 0.00 0.00 44 679.5
20260501211018 52 340 6.0 10.0 0.00 0.00 0.00 45 679.5
20260501210018 52 11 4.0 10.0 0.00 0.00 0.00 44 679.5